Location: ???????????
(54.6970°N, 39.1477°E)
Time: 03:09:50
(UTC+00:00)

Geosat FO - Pass Details

Date: 19 May 2025
Orbit: 387 x 492 km, 108.0° (Epoch: 15 June)

Event Time Altitude Azimuth Distance (km) Brightness Sun altitude
Exits shadow 21:25:07 39° 178° (S) 603 4.5 -15.3°
Maximum altitude 21:25:59 60° 239° (WSW) 455 4.2 -15.3°
Drops below altitude 10° 21:28:58 10° 321° (NW) 1,431 7.7 -15.3°
Sets 21:30:56 0° 325° (NW) 2,291 8.9 -15.3°
